SCP
0 0 0 0 0 0 0 0 0 0 0 0 0 0 0 0 0 0 0 0 0 0 0 0 0 0 0 0 0 0 0 0 0 0 0 0 0 0 0 0 0 0 0 0 0 0 0 0 0 0 0 0 0 0
0 0 0 0 0 0 0 0 0 0 0 0 0 0 0 0 0 0 0 0 0 0 0 0 0 0 0 0 0 0 0 0 0 0 0 0 1 0 0 0 0 0 0 0 0 0 0 0 0 0 0 0 0 -0
0 0 0 0 0 0 0 0 0 0 0 0 0 0 0 0 0 0 0 0 0 0 0 0 0 0 0 0 0 0 0 0 0 0 0 0 0 0 0 0 0 0 0 0 0 0 0 0 0 0 0 0 0 0
0 0 0 0 0 0 0 0 0 0 0 0 0 0 0 0 0 0 0 0 0 0 0 -0 0 0 0 0 0 0 0 0 0 0 0 0 0 0 0 0 0 0 0 0 0 0 0 0 0 0 0 0 0 0
0 0 0 0 0 0 0 0 0 0 0 0 0 0 0 0 0 0 0 0 0 0 0 -0 -0 0 0 0 0 0 0 0 0 0 0 0 0 0 0 0 0 0 0 0 0 0 0 0 0 0 0 0 0 0
0 0 0 0 0 0 0 0 0 0 0 0 0 0 0 0 0 0 0 0 0 0 0 -0 0 0 0 0 0 0 0 0 0 0 0 0 0 0 0 0 0 0 0 0 0 0 0 0 0 0 0 0 0 0
0 0 0 0 0 0 0 0 0 0 0 0 0 0 0 0 0 0 0 0 0 0 0 0 0 0 0 0 0 0 0 0 0 0 0 0 0 0 0 0 0 0 0 0 0 0 0 0 0 0 0 0 0 0
0 0 0 0 0 0 0 0 0 0 0 0 0 0 0 0 0 0 0 0 0 0 0 0 0 0 0 0 0 0 0 0 0 0 0 0 0 0 0 0 0 0 0 0 0 0 0 0 0 0 0 0 0 0
0 0 0 0 0 0 0 0 0 0 0 0 0 0 0 0 0 0 0 0 0 0 0 0 0 0 0 0 0 0 0 0 0 0 0 0 0 0 0 0 0 0 0 0 0 0 0 0 0 0 0 0 0 0
0 0 0 0 0 0 0 0 0 0 0 0 0 0 0 0 0 0 0 0 0 0 0 0 0 0 0 0 0 0 0 0 0 0 0 0 0 -0 -0 0 0 0 0 0 0 0 0 0 0 0 0 0 0 0
0 0 0 0 0 0 0 0 0 0 0 0 0 0 0 0 0 0 0 0 0 0 0 0 0 0 0 0 0 0 0 0 0 0 0 -0 0 0 0 0 0 0 -0 0 0 0 0 0 0 0 0 0 0 0
0 0 0 0 0 0 0 0 0 0 0 0 0 0 0 0 0 0 0 0 0 0 0 0 0 0 0 0 0 0 0 0 -0 0 0 -0 0 0 0 0 0 0 0 0 0 -0 -0 -0 0 0 0 0 0 0
0 0 0 0 0 0 0 0 0 0 0 0 0 0 0 0 0 0 0 0 0 0 0 0 0 0 0 0 0 0 0 0 0 0 -0 0 0 0 0 0 0 0 0 0 0 0 0 0 0 0 0 0 0 0
0 0 0 0 0 0 0 0 0 0 0 0 0 0 0 0 0 0 0 0 0 0 0 0 0 0 0 0 0 0 0 0 0 0 -0 0 0 0 0 0 0 -0 0 0 0 0 -0 0 0 0 0 0 0 0
0 0 0 0 0 0 0 0 0 0 0 0 0 0 0 0 0 0 0 -0 -0 -0 -0 0 0 0 0 0 0 0 0 0 0 0 -0 -0 0 0 0 0 0 0 0 0 0 0 0 0 0 0 0 0 0 0
0 0 0 0 0 0 0 0 0 0 0 0 0 0 0 0 0 0 0 0 0 -0 -0 0 -0 0 0 0 0 0 0 0 0 0 0 0 0 0 0 0 0 0 0 0 0 0 0 0 0 0 0 0 0 0
0 0 0 0 0 0 0 0 0 0 0 0 0 0 0 0 0 0 0 0 0 0 0 0 -0 0 0 0 0 0 0 0 0 0 0 0 0 0 0 0 0 0 0 0 0 0 0 0 0 0 0 0 0 0
0 0 0 0 0 0 0 0 0 0 -0 0 0 0 0 0 0 0 0 0 0 0 -0 -0 0 0 0 0 0 0 0 0 -0 -0 0 0 0 0 0 0 0 0 0 0 0 0 0 0 0 0 0 0 0 0
0 0 0 0 0 0 0 0 0 0 -0 0 0 0 0 0 0 0 0 0 0 -0 -0 -0 0 0 0 0 0 0 0 0 0 0 0 0 0 0 0 0 0 0 0 0 0 0 0 0 0 0 0 0 0 0
0 0 0 0 0 0 0 0 0 0 0 0 0 0 0 0 0 0 0 0 0 -0 -0 -0 0 0 0 0 0 0 0 0 0 0 0 0 0 0 0 0 0 0 0 0 0 0 0 0 0 0 0 0 0 0
0 0 0 0 0 0 0 0 0 0 0 0 0 0 0 0 0 0 0 -0 0 -0 -0 0 0 0 0 0 0 0 0 0 0 0 0 0 0 0 0 0 0 0 0 0 0 0 0 0 0 0 0 0 0 0
0 0 0 0 0 0 0 0 0 0 0 0 0 0 0 0 -0 -0 -0 0 -0 -0 0 0 0 0 0 0 0 0 0 0 0 0 0 0 0 0 0 0 0 0 0 0 0 0 0 0 0 0 0 0 0 0
0 0 0 0 0 0 0 0 0 0 0 0 0 0 -0 -0 0 0 0 0 0 0 0 0 0 0 0 0 0 0 0 0 0 0 0 0 0 0 0 0 0 0 0 0 0 0 0 0 0 0 0 0 0 -0
0 0 -0 -0 0 0 0 0 0 0 0 0 0 0 0 0 0 0 0 0 0 0 0 0 0 0 0 0 0 0 0 -0 -0 0 0 0 0 0 0 0 0 0 0 0 0 0 0 0 0 0 0 0 0 0
-0 -0 -0 0 0 0 0 0 0 0 0 0 0 0 0 0 0 0 0 0 0 0 0 0 0 0 0 0 0 0 -0 -0 -0 0 0 0 0 0 0 0 0 0 0 0 0 0 -0 -0 -0 0 0 0 0 0
-0 -0 -0 0 0 0 0 0 0 0 0 0 0 0 -0 0 0 0 0 0 0 0 0 0 0 0 0 0 0 0 0 0 0 0 0 0 0 0 0 0 0 0 0 0 0 0 0 0 0 0 0 0 0 -0
0 0 0 0 0 0 0 0 0 0 0 0 0 0 0 0 0 0 0 0 0 0 0 0 0 0 0 0 0 0 0 0 0 0 0 0 0 0 0 0 -0 -0 -0 -0 0 0 0 0 0 -0 -0 -0 -0 -0
0 0 0 0 0 0 0 0 0 0 0 0 0 0 0 0 0 0 0 0 0 0 0 0 0 0 0 0 0 0 0 0 0 0 0 0 0 0 0 0 -0 -0 -0 -0 -0 0 0 -0 -0 -0 -0 -0 -0 -0
0 0 0 0 0 0 0 0 0 0 0 0 0 0 0 0 0 0 0 0 0 0 0 0 0 0 0 0 0 0 0 0 0 0 0 0 0 0 0 0 0 0 0 0 -0 -0 -0 0 0 -0 -0 -0 -0 0
0 0 0 0 0 0 0 0 0 0 -0 0 0 0 0 0 0 0 0 0 0 0 0 0 0 0 0 0 0 0 0 0 0 0 0 0 -0 -0 -0 -0 0 0 0 0 -0 -0 -0 0 0 -0 0 0 0 0
-0 0 0 0 0 0 0 0 0 0 0 0 0 0 0 0 0 0 0 0 0 0 0 0 0 0 0 0 0 0 0 0 0 0 0 0 0 0 -0 -0 0 0 0 -0 -0 -0 -0 -0 -0 -0 -0 -0 -0 0
-0 0 0 0 0 0 0 0 0 0 0 0 0 0 0 0 0 0 0 0 0 0 0 0 0 0 0 0 0 0 0 0 0 -0 -0 -0 -0 -0 0 0 0 0 -0 -0 0 0 -0 -0 -0 -0 -0 -0 -0 -0
-0 0 0 0 0 0 0 0 0 0 0 0 0 0 0 0 0 0 0 0 0 0 0 0 0 0 0 0 0 0 0 0 -0 -0 -0 -0 -0 -0 0 0 0 -0 -0 -0 -0 -0 -0 -0 -0 -0 -0 0 -0 -0
Wind_Speed_500mb
29 32 33 34 33 31 30 31 31 30 32 32 32 30 28 26 26 27 19 13 11 13 47 49 35 19 16 8 3 11 13 4 7 5 3 5 3 1 5 6 5 12 12 9 5 7 3 18 12 17 17 25 61 58
31 32 34 33 31 31 32 32 32 33 33 33 34 33 29 25 22 26 18 10 23 29 37 57 67 62 48 60 34 12 8 5 7 3 3 2 2 1 8 5 5 7 11 6 14 13 6 47 25 42 37 60 56 69
31 31 29 28 29 31 34 35 34 34 34 34 34 32 29 27 24 25 30 29 28 24 56 34 19 27 22 63 72 20 11 14 7 4 3 3 6 6 8 10 5 10 8 5 5 6 10 19 29 26 31 46 67 77
32 30 28 29 32 33 34 34 35 34 32 32 34 34 32 30 28 29 37 36 30 13 11 22 20 28 31 27 44 70 62 13 11 4 1 4 5 9 6 4 6 6 7 7 11 15 5 15 34 37 40 49 65 72
31 31 31 33 33 33 34 35 33 32 32 33 34 33 32 33 33 37 43 43 39 27 10 37 84 30 6 31 65 47 61 69 28 7 2 5 5 2 1 3 7 14 11 9 11 7 4 14 38 48 54 64 70 81
30 31 32 33 34 35 35 33 31 31 31 33 31 31 33 32 37 37 10 9 7 32 11 10 22 51 35 17 43 66 64 49 33 14 11 11 9 5 4 7 12 23 22 30 7 12 15 15 49 55 62 67 70 69
30 31 33 34 35 33 32 32 32 33 34 32 31 32 34 32 34 24 11 8 7 11 8 15 16 12 22 7 20 27 44 23 24 13 12 9 9 11 3 6 12 16 14 13 14 27 23 37 29 51 62 63 60 60
31 33 33 32 32 31 31 33 33 33 32 30 33 37 39 37 43 40 10 16 39 24 11 7 11 17 15 6 11 21 28 28 23 16 8 8 6 6 8 25 29 11 26 28 15 9 19 31 53 60 62 64 63 62
31 32 31 31 29 29 30 32 33 32 30 30 33 37 40 11 5 3 7 11 27 24 9 8 5 8 26 10 2 15 19 6 12 6 8 12 5 9 16 35 39 37 40 36 50 50 32 36 62 62 65 62 61 62
30 28 27 27 28 29 31 32 34 32 30 26 25 9 6 3 7 17 7 8 13 19 17 9 9 8 18 15 8 4 8 7 7 4 12 6 9 56 67 61 42 58 34 52 48 56 15 25 47 59 58 56 56 65
27 26 26 27 27 26 26 27 29 27 19 8 5 7 13 13 11 8 9 12 13 8 16 18 33 17 24 9 9 8 5 5 5 5 4 7 8 20 76 75 54 59 56 47 56 75 65 30 51 52 54 53 56 61
24 24 24 25 24 24 25 26 26 20 12 11 18 30 20 5 10 5 6 2 9 9 10 9 12 25 15 17 6 6 7 1 8 15 3 7 9 10 14 35 41 60 49 35 48 70 61 56 44 57 57 58 61 59
21 22 24 25 23 26 27 22 17 16 14 13 5 7 6 7 11 10 10 6 5 6 4 15 10 8 10 11 10 4 7 5 16 2 8 9 9 10 30 36 47 45 33 36 35 42 38 51 59 64 61 58 56 53
21 24 21 22 21 17 19 17 12 12 8 6 7 8 9 9 8 8 2 5 15 18 34 34 13 7 6 3 5 6 5 7 7 6 11 6 11 12 13 29 48 52 50 42 34 38 48 62 66 59 57 60 55 49
19 16 12 8 15 20 23 19 14 10 7 8 7 9 10 17 14 24 35 20 28 39 27 19 8 7 4 7 5 2 7 5 9 9 6 14 10 17 28 36 46 53 58 58 48 47 60 70 68 61 60 56 47 43
12 10 9 13 17 19 18 7 10 10 8 9 13 10 22 11 18 14 21 33 34 25 31 13 4 7 9 7 7 11 10 9 5 5 21 30 20 22 39 50 56 61 64 58 60 61 63 71 65 58 61 52 45 38
9 9 9 12 16 14 8 3 4 9 9 9 14 27 40 35 35 43 36 39 33 26 6 7 10 10 4 5 5 8 8 4 14 29 22 21 17 30 43 50 60 67 65 68 67 68 66 63 53 56 58 51 41 33
7 10 12 14 15 16 12 8 7 9 12 22 14 22 25 37 43 51 49 43 21 8 7 3 7 6 6 5 4 2 8 20 13 14 13 10 7 28 38 52 62 63 61 59 64 67 57 51 55 58 52 48 43 39
10 15 16 17 14 12 5 6 10 9 20 18 27 42 41 41 52 49 43 36 32 28 18 7 5 6 6 5 6 18 17 12 7 4 11 13 24 34 41 47 55 59 63 63 63 62 59 57 55 53 52 51 45 42
14 11 13 13 15 6 6 8 10 11 11 9 23 27 24 24 36 35 28 21 20 11 10 6 7 6 5 20 23 25 12 11 16 22 26 28 31 41 50 56 63 71 73 70 65 60 58 54 48 47 44 40 43 47
7 6 8 5 11 11 9 7 11 13 15 15 29 28 19 22 18 10 7 11 11 8 5 10 23 19 16 19 12 3 4 12 18 14 39 43 40 43 49 65 75 75 72 67 63 58 53 50 45 39 38 35 36 38
8 5 10 7 6 6 11 14 14 15 13 20 24 10 13 7 6 4 10 9 10 14 16 11 13 13 11 7 6 8 11 20 28 28 35 46 55 53 61 63 64 63 58 57 57 53 45 42 44 40 39 38 36 39
8 8 6 6 5 7 12 11 9 8 6 8 9 7 6 6 10 12 7 7 11 13 14 21 14 10 5 4 8 11 16 16 28 28 35 47 57 63 64 60 51 49 51 48 44 45 47 47 45 47 47 44 40 38
11 5 5 5 9 9 9 8 9 9 10 7 5 8 6 9 17 5 4 7 15 20 30 27 11 8 14 9 9 12 16 14 21 29 42 60 62 56 51 45 39 38 46 51 47 47 52 54 54 49 45 39 33 28
5 6 6 7 8 7 6 7 6 5 7 6 6 8 7 10 4 3 4 4 19 38 8 4 3 15 22 18 8 17 20 19 30 24 28 38 54 55 48 42 36 40 47 52 53 55 60 55 48 39 30 23 17 15
5 10 13 7 6 7 5 6 5 6 7 7 6 13 15 8 9 6 7 35 40 46 34 5 4 9 17 14 18 27 23 23 31 25 28 33 51 58 54 48 47 50 47 52 57 55 52 45 37 29 23 19 17 19
6 10 13 12 8 8 9 13 15 6 8 7 6 8 4 5 0 6 23 37 56 40 28 2 11 6 9 16 22 30 35 37 33 31 36 40 49 41 45 51 45 44 47 54 41 35 31 26 29 31 27 24 20 19
11 10 10 12 10 12 5 7 5 5 6 11 16 5 7 7 4 25 41 51 42 30 14 16 16 10 11 12 25 37 36 33 33 34 41 48 41 42 41 39 39 39 40 36 30 26 27 33 35 33 26 18 11 7
11 11 17 10 10 9 13 11 8 6 7 11 6 6 8 12 35 44 45 42 22 23 11 15 16 28 18 12 22 20 29 34 37 40 43 45 46 45 41 33 29 28 30 27 23 26 32 38 29 19 12 11 14 12
10 22 11 7 6 8 13 18 15 19 17 19 18 26 36 39 44 28 26 29 21 21 19 18 24 10 6 12 27 39 41 33 33 48 53 47 43 40 32 29 32 36 34 27 28 34 34 31 25 21 19 22 25 16
10 26 8 11 8 15 26 25 25 28 31 35 35 36 42 31 24 14 21 22 11 13 11 10 1 13 14 22 37 43 38 32 33 35 39 41 38 36 34 35 33 33 33 32 29 31 31 31 28 25 19 21 32 22
23 22 13 7 8 11 14 10 11 9 9 11 11 10 10 8 8 9 19 15 8 8 7 5 3 9 15 33 39 38 34 30 31 35 37 37 35 36 36 32 31 37 42 40 37 33 28 25 26 28 25 28 28 25
17 19 17 9 6 5 12 10 8 7 9 7 7 6 8 5 5 6 13 11 9 7 5 4 6 11 23 34 35 32 29 27 27 31 32 33 35 37 35 31 35 32 30 34 33 30 24 23 25 26 28 27 26 25
Wind_Direction_500mb
313 316 319 321 321 322 325 330 335 341 344 344 343 338 336 336 341 340 337 259 293 268 275 265 254 241 248 229 224 317 339 301 328 42 182 228 150 322 30 311 234 180 158 191 123 91 175 148 101 172 194 158 161 170
311 314 316 315 315 317 319 321 322 325 331 335 336 337 336 329 326 323 331 280 282 277 268 280 276 265 257 248 256 279 269 288 256 85 252 81 241 25 140 259 32 263 176 195 187 208 284 179 199 211 168 155 164 171
308 312 317 318 315 313 314 316 316 317 321 325 329 330 327 327 321 310 303 307 315 294 300 283 300 317 268 240 235 235 243 221 241 268 188 235 243 129 167 225 249 220 170 190 7 289 264 264 198 191 177 171 177 181
308 314 316 314 312 313 314 314 313 314 315 318 322 322 322 318 315 304 300 302 297 290 277 285 292 291 295 275 229 227 220 253 294 273 253 229 231 191 220 229 205 239 127 178 263 274 286 228 205 186 182 172 173 175
304 309 311 311 311 311 312 311 310 311 314 315 316 317 318 317 315 309 302 287 266 231 278 291 301 311 330 265 232 230 224 230 243 318 9 256 238 183 238 26 252 192 185 171 232 214 207 248 199 183 176 173 172 170
300 303 306 308 309 307 308 309 310 309 310 312 311 312 313 313 311 324 324 354 290 212 273 302 299 293 300 261 215 217 220 217 209 213 220 239 228 181 229 232 256 216 229 232 272 326 272 200 174 177 173 171 171 171
298 301 303 304 304 305 305 307 308 308 307 305 303 305 306 304 296 291 286 327 36 109 278 293 293 289 324 184 171 188 201 192 196 225 226 214 196 158 252 243 250 221 225 249 231 136 131 152 154 169 166 162 163 165
298 301 303 304 303 303 304 305 305 309 309 305 304 300 300 293 285 282 308 253 235 268 263 275 278 310 356 222 131 156 167 187 198 212 190 178 162 177 252 244 263 199 128 125 157 181 167 157 147 152 156 155 155 155
297 300 303 304 302 304 305 306 306 308 309 309 303 304 297 289 238 358 302 244 220 213 277 235 277 283 347 345 153 174 167 158 182 193 209 160 171 221 231 247 236 177 161 139 108 102 121 140 148 151 152 154 151 151
294 298 304 304 304 303 304 307 308 309 310 304 306 290 265 93 290 310 262 208 177 202 230 242 235 263 328 347 297 256 202 148 156 199 149 212 232 241 250 257 257 209 207 167 124 92 100 170 149 154 155 157 158 159
290 295 298 301 305 306 306 309 315 318 321 308 277 263 280 283 278 229 223 193 186 244 220 235 228 246 264 200 232 237 218 167 140 185 104 260 269 219 235 247 240 208 185 178 172 158 172 208 174 161 161 159 161 162
285 293 298 299 302 301 306 305 310 313 305 276 286 293 292 240 223 231 235 203 198 235 211 208 250 224 248 221 201 230 195 190 175 143 127 260 256 225 210 225 219 191 197 191 169 153 162 177 190 178 160 161 159 157
284 292 297 297 293 295 304 302 299 314 303 286 264 262 243 240 211 213 217 217 240 246 240 337 311 260 247 229 252 217 194 153 128 95 229 234 264 194 194 174 169 174 174 174 169 175 187 187 181 171 158 159 158 158
285 295 297 297 295 301 300 295 281 310 308 252 240 258 215 228 233 219 96 268 276 268 303 309 255 236 265 224 203 207 196 139 141 222 244 236 229 212 187 179 183 194 196 192 189 188 184 174 173 167 162 158 157 157
292 292 290 292 318 317 308 286 253 271 272 256 240 244 233 244 279 288 297 289 297 310 307 295 258 292 274 272 203 83 168 205 202 232 261 326 305 206 198 192 192 192 190 197 199 192 178 173 172 166 164 163 158 155
285 278 261 295 329 337 335 279 228 228 251 242 235 255 266 298 287 283 294 302 308 307 308 232 170 272 250 210 184 210 155 209 244 256 308 321 289 232 198 197 195 192 188 184 182 183 171 167 167 167 167 165 162 158
261 239 272 305 327 324 339 259 235 232 245 248 249 245 258 272 271 275 281 282 304 302 246 249 165 233 297 238 237 187 201 221 317 315 312 307 286 213 196 189 180 177 174 172 170 172 166 165 164 168 166 167 163 162
258 269 283 306 319 328 269 229 246 244 252 249 253 270 261 259 268 276 279 291 289 258 281 312 297 248 248 244 245 291 332 325 336 327 315 283 222 180 183 178 172 167 160 158 161 156 162 165 170 170 165 162 162 164
296 291 282 291 303 321 264 233 233 259 249 264 267 276 273 273 282 288 287 288 279 257 287 283 250 230 252 300 311 340 335 305 316 70 103 142 161 170 171 164 154 153 152 152 156 161 163 165 166 166 167 167 167 169
297 294 277 255 265 280 268 254 226 261 269 274 268 268 267 265 281 286 285 272 255 229 221 222 211 244 268 319 313 316 302 146 140 118 113 130 150 157 158 163 153 151 152 156 155 150 152 156 160 164 167 171 173 173
307 280 286 286 273 243 261 260 248 245 275 263 278 289 272 262 266 255 244 211 225 225 264 225 265 302 325 317 336 13 224 197 188 203 153 142 154 162 158 153 153 151 147 146 147 151 152 152 154 160 160 163 172 173
287 273 281 246 254 257 261 242 252 279 271 272 293 248 264 282 300 248 296 237 240 231 224 248 302 358 6 339 38 97 127 138 120 130 154 149 146 151 157 154 149 145 146 149 150 147 145 148 151 153 156 155 153 158
235 233 253 248 264 249 269 254 256 251 261 266 279 262 230 151 257 264 275 259 269 271 251 254 271 348 3 92 97 116 115 131 144 139 149 151 146 148 150 150 151 146 145 146 148 148 149 150 151 150 153 151 150 151
185 211 228 240 228 266 289 255 248 266 271 262 250 266 243 208 182 221 268 286 292 277 267 277 273 212 162 150 159 169 171 149 147 142 153 149 140 139 146 153 149 146 148 149 153 154 153 151 153 154 158 162 166 176
200 220 222 260 243 255 261 272 254 273 265 276 280 293 320 316 274 51 126 284 3 24 55 187 312 177 168 160 148 187 188 185 172 154 145 144 137 147 156 154 150 152 156 154 153 155 155 157 159 162 168 175 182 183
215 215 195 227 227 198 253 276 288 303 297 286 269 317 1 344 344 359 359 0 356 357 5 349 42 188 183 192 192 171 177 165 169 165 158 161 163 160 160 161 158 159 162 160 154 156 159 160 162 167 166 159 155 158
225 221 230 230 252 283 282 271 269 276 278 279 329 330 341 263 213 332 342 354 354 353 358 196 200 238 250 208 181 171 164 162 168 155 152 160 168 162 160 155 156 152 156 162 160 163 166 164 165 162 148 141 137 153
238 222 204 199 209 225 259 289 268 250 268 320 323 288 318 16 343 340 333 340 349 2 37 108 108 136 149 143 140 157 163 156 160 153 150 157 162 156 151 144 142 148 155 159 162 159 156 156 154 158 160 161 178 215
231 225 196 216 220 232 222 217 254 265 318 333 319 284 316 331 318 328 332 346 11 23 82 147 135 135 92 97 155 143 146 151 152 153 154 158 159 162 162 158 156 169 172 173 171 171 163 157 156 159 167 189 156 136
226 198 207 218 200 229 240 220 254 277 303 309 305 299 303 310 324 332 341 353 17 44 69 106 139 120 43 144 165 153 147 150 161 161 159 163 167 164 163 163 159 166 173 171 163 174 178 177 178 181 178 175 174 192
190 181 223 208 237 245 254 260 264 274 286 292 296 289 292 307 323 358 356 4 16 51 83 112 12 23 74 135 142 139 140 147 153 155 154 154 154 155 155 160 157 160 160 162 170 179 185 186 192 201 221 195 190 194
179 184 195 211 253 263 247 258 267 267 279 282 288 281 301 297 293 339 355 17 70 64 101 45 13 56 110 138 144 142 138 135 143 155 154 152 148 148 157 162 170 165 161 163 153 155 157 175 188 186 188 187 177 169
171 179 206 280 261 244 194 187 220 266 252 258 265 283 284 273 291 339 356 42 105 98 119 111 131 103 131 141 141 142 143 138 137 143 145 147 144 139 150 156 163 171 179 184 189 189 187 185 178 185 185 175 173 163
Wind_Speed_850mb
29 32 33 34 33 31 30 31 31 30 32 32 32 30 28 26 26 27 19 13 11 13 47 49 35 19 16 8 3 11 13 4 7 5 3 5 3 1 5 6 5 12 12 9 5 7 3 18 12 17 17 25 61 58
31 32 34 33 31 31 32 32 32 33 33 33 34 33 29 25 22 26 18 10 23 29 37 57 67 62 48 60 34 12 8 5 7 3 3 2 2 1 8 5 5 7 11 6 14 13 6 47 25 42 37 60 56 69
31 31 29 28 29 31 34 35 34 34 34 34 34 32 29 27 24 25 30 29 28 24 56 34 19 27 22 63 72 20 11 14 7 4 3 3 6 6 8 10 5 10 8 5 5 6 10 19 29 26 31 46 67 77
32 30 28 29 32 33 34 34 35 34 32 32 34 34 32 30 28 29 37 36 30 13 11 22 20 28 31 27 44 70 62 13 11 4 1 4 5 9 6 4 6 6 7 7 11 15 5 15 34 37 40 49 65 72
31 31 31 33 33 33 34 35 33 32 32 33 34 33 32 33 33 37 43 43 39 27 10 37 84 30 6 31 65 47 61 69 28 7 2 5 5 2 1 3 7 14 11 9 11 7 4 14 38 48 54 64 70 81
30 31 32 33 34 35 35 33 31 31 31 33 31 31 33 32 37 37 10 9 7 32 11 10 22 51 35 17 43 66 64 49 33 14 11 11 9 5 4 7 12 23 22 30 7 12 15 15 49 55 62 67 70 69
30 31 33 34 35 33 32 32 32 33 34 32 31 32 34 32 34 24 11 8 7 11 8 15 16 12 22 7 20 27 44 23 24 13 12 9 9 11 3 6 12 16 14 13 14 27 23 37 29 51 62 63 60 60
31 33 33 32 32 31 31 33 33 33 32 30 33 37 39 37 43 40 10 16 39 24 11 7 11 17 15 6 11 21 28 28 23 16 8 8 6 6 8 25 29 11 26 28 15 9 19 31 53 60 62 64 63 62
31 32 31 31 29 29 30 32 33 32 30 30 33 37 40 11 5 3 7 11 27 24 9 8 5 8 26 10 2 15 19 6 12 6 8 12 5 9 16 35 39 37 40 36 50 50 32 36 62 62 65 62 61 62
30 28 27 27 28 29 31 32 34 32 30 26 25 9 6 3 7 17 7 8 13 19 17 9 9 8 18 15 8 4 8 7 7 4 12 6 9 56 67 61 42 58 34 52 48 56 15 25 47 59 58 56 56 65
27 26 26 27 27 26 26 27 29 27 19 8 5 7 13 13 11 8 9 12 13 8 16 18 33 17 24 9 9 8 5 5 5 5 4 7 8 20 76 75 54 59 56 47 56 75 65 30 51 52 54 53 56 61
24 24 24 25 24 24 25 26 26 20 12 11 18 30 20 5 10 5 6 2 9 9 10 9 12 25 15 17 6 6 7 1 8 15 3 7 9 10 14 35 41 60 49 35 48 70 61 56 44 57 57 58 61 59
21 22 24 25 23 26 27 22 17 16 14 13 5 7 6 7 11 10 10 6 5 6 4 15 10 8 10 11 10 4 7 5 16 2 8 9 9 10 30 36 47 45 33 36 35 42 38 51 59 64 61 58 56 53
21 24 21 22 21 17 19 17 12 12 8 6 7 8 9 9 8 8 2 5 15 18 34 34 13 7 6 3 5 6 5 7 7 6 11 6 11 12 13 29 48 52 50 42 34 38 48 62 66 59 57 60 55 49
19 16 12 8 15 20 23 19 14 10 7 8 7 9 10 17 14 24 35 20 28 39 27 19 8 7 4 7 5 2 7 5 9 9 6 14 10 17 28 36 46 53 58 58 48 47 60 70 68 61 60 56 47 43
12 10 9 13 17 19 18 7 10 10 8 9 13 10 22 11 18 14 21 33 34 25 31 13 4 7 9 7 7 11 10 9 5 5 21 30 20 22 39 50 56 61 64 58 60 61 63 71 65 58 61 52 45 38
9 9 9 12 16 14 8 3 4 9 9 9 14 27 40 35 35 43 36 39 33 26 6 7 10 10 4 5 5 8 8 4 14 29 22 21 17 30 43 50 60 67 65 68 67 68 66 63 53 56 58 51 41 33
7 10 12 14 15 16 12 8 7 9 12 22 14 22 25 37 43 51 49 43 21 8 7 3 7 6 6 5 4 2 8 20 13 14 13 10 7 28 38 52 62 63 61 59 64 67 57 51 55 58 52 48 43 39
10 15 16 17 14 12 5 6 10 9 20 18 27 42 41 41 52 49 43 36 32 28 18 7 5 6 6 5 6 18 17 12 7 4 11 13 24 34 41 47 55 59 63 63 63 62 59 57 55 53 52 51 45 42
14 11 13 13 15 6 6 8 10 11 11 9 23 27 24 24 36 35 28 21 20 11 10 6 7 6 5 20 23 25 12 11 16 22 26 28 31 41 50 56 63 71 73 70 65 60 58 54 48 47 44 40 43 47
7 6 8 5 11 11 9 7 11 13 15 15 29 28 19 22 18 10 7 11 11 8 5 10 23 19 16 19 12 3 4 12 18 14 39 43 40 43 49 65 75 75 72 67 63 58 53 50 45 39 38 35 36 38
8 5 10 7 6 6 11 14 14 15 13 20 24 10 13 7 6 4 10 9 10 14 16 11 13 13 11 7 6 8 11 20 28 28 35 46 55 53 61 63 64 63 58 57 57 53 45 42 44 40 39 38 36 39
8 8 6 6 5 7 12 11 9 8 6 8 9 7 6 6 10 12 7 7 11 13 14 21 14 10 5 4 8 11 16 16 28 28 35 47 57 63 64 60 51 49 51 48 44 45 47 47 45 47 47 44 40 38
11 5 5 5 9 9 9 8 9 9 10 7 5 8 6 9 17 5 4 7 15 20 30 27 11 8 14 9 9 12 16 14 21 29 42 60 62 56 51 45 39 38 46 51 47 47 52 54 54 49 45 39 33 28
5 6 6 7 8 7 6 7 6 5 7 6 6 8 7 10 4 3 4 4 19 38 8 4 3 15 22 18 8 17 20 19 30 24 28 38 54 55 48 42 36 40 47 52 53 55 60 55 48 39 30 23 17 15
5 10 13 7 6 7 5 6 5 6 7 7 6 13 15 8 9 6 7 35 40 46 34 5 4 9 17 14 18 27 23 23 31 25 28 33 51 58 54 48 47 50 47 52 57 55 52 45 37 29 23 19 17 19
6 10 13 12 8 8 9 13 15 6 8 7 6 8 4 5 0 6 23 37 56 40 28 2 11 6 9 16 22 30 35 37 33 31 36 40 49 41 45 51 45 44 47 54 41 35 31 26 29 31 27 24 20 19
11 10 10 12 10 12 5 7 5 5 6 11 16 5 7 7 4 25 41 51 42 30 14 16 16 10 11 12 25 37 36 33 33 34 41 48 41 42 41 39 39 39 40 36 30 26 27 33 35 33 26 18 11 7
11 11 17 10 10 9 13 11 8 6 7 11 6 6 8 12 35 44 45 42 22 23 11 15 16 28 18 12 22 20 29 34 37 40 43 45 46 45 41 33 29 28 30 27 23 26 32 38 29 19 12 11 14 12
10 22 11 7 6 8 13 18 15 19 17 19 18 26 36 39 44 28 26 29 21 21 19 18 24 10 6 12 27 39 41 33 33 48 53 47 43 40 32 29 32 36 34 27 28 34 34 31 25 21 19 22 25 16
10 26 8 11 8 15 26 25 25 28 31 35 35 36 42 31 24 14 21 22 11 13 11 10 1 13 14 22 37 43 38 32 33 35 39 41 38 36 34 35 33 33 33 32 29 31 31 31 28 25 19 21 32 22
23 22 13 7 8 11 14 10 11 9 9 11 11 10 10 8 8 9 19 15 8 8 7 5 3 9 15 33 39 38 34 30 31 35 37 37 35 36 36 32 31 37 42 40 37 33 28 25 26 28 25 28 28 25
17 19 17 9 6 5 12 10 8 7 9 7 7 6 8 5 5 6 13 11 9 7 5 4 6 11 23 34 35 32 29 27 27 31 32 33 35 37 35 31 35 32 30 34 33 30 24 23 25 26 28 27 26 25
Wind_Direction_850mb
313 316 319 321 321 322 325 330 335 341 344 344 343 338 336 336 341 340 337 259 293 268 275 265 254 241 248 229 224 317 339 301 328 42 182 228 150 322 30 311 234 180 158 191 123 91 175 148 101 172 194 158 161 170
311 314 316 315 315 317 319 321 322 325 331 335 336 337 336 329 326 323 331 280 282 277 268 280 276 265 257 248 256 279 269 288 256 85 252 81 241 25 140 259 32 263 176 195 187 208 284 179 199 211 168 155 164 171
308 312 317 318 315 313 314 316 316 317 321 325 329 330 327 327 321 310 303 307 315 294 300 283 300 317 268 240 235 235 243 221 241 268 188 235 243 129 167 225 249 220 170 190 7 289 264 264 198 191 177 171 177 181
308 314 316 314 312 313 314 314 313 314 315 318 322 322 322 318 315 304 300 302 297 290 277 285 292 291 295 275 229 227 220 253 294 273 253 229 231 191 220 229 205 239 127 178 263 274 286 228 205 186 182 172 173 175
304 309 311 311 311 311 312 311 310 311 314 315 316 317 318 317 315 309 302 287 266 231 278 291 301 311 330 265 232 230 224 230 243 318 9 256 238 183 238 26 252 192 185 171 232 214 207 248 199 183 176 173 172 170
300 303 306 308 309 307 308 309 310 309 310 312 311 312 313 313 311 324 324 354 290 212 273 302 299 293 300 261 215 217 220 217 209 213 220 239 228 181 229 232 256 216 229 232 272 326 272 200 174 177 173 171 171 171
298 301 303 304 304 305 305 307 308 308 307 305 303 305 306 304 296 291 286 327 36 109 278 293 293 289 324 184 171 188 201 192 196 225 226 214 196 158 252 243 250 221 225 249 231 136 131 152 154 169 166 162 163 165
298 301 303 304 303 303 304 305 305 309 309 305 304 300 300 293 285 282 308 253 235 268 263 275 278 310 356 222 131 156 167 187 198 212 190 178 162 177 252 244 263 199 128 125 157 181 167 157 147 152 156 155 155 155
297 300 303 304 302 304 305 306 306 308 309 309 303 304 297 289 238 358 302 244 220 213 277 235 277 283 347 345 153 174 167 158 182 193 209 160 171 221 231 247 236 177 161 139 108 102 121 140 148 151 152 154 151 151
294 298 304 304 304 303 304 307 308 309 310 304 306 290 265 93 290 310 262 208 177 202 230 242 235 263 328 347 297 256 202 148 156 199 149 212 232 241 250 257 257 209 207 167 124 92 100 170 149 154 155 157 158 159
290 295 298 301 305 306 306 309 315 318 321 308 277 263 280 283 278 229 223 193 186 244 220 235 228 246 264 200 232 237 218 167 140 185 104 260 269 219 235 247 240 208 185 178 172 158 172 208 174 161 161 159 161 162
285 293 298 299 302 301 306 305 310 313 305 276 286 293 292 240 223 231 235 203 198 235 211 208 250 224 248 221 201 230 195 190 175 143 127 260 256 225 210 225 219 191 197 191 169 153 162 177 190 178 160 161 159 157
284 292 297 297 293 295 304 302 299 314 303 286 264 262 243 240 211 213 217 217 240 246 240 337 311 260 247 229 252 217 194 153 128 95 229 234 264 194 194 174 169 174 174 174 169 175 187 187 181 171 158 159 158 158
285 295 297 297 295 301 300 295 281 310 308 252 240 258 215 228 233 219 96 268 276 268 303 309 255 236 265 224 203 207 196 139 141 222 244 236 229 212 187 179 183 194 196 192 189 188 184 174 173 167 162 158 157 157
292 292 290 292 318 317 308 286 253 271 272 256 240 244 233 244 279 288 297 289 297 310 307 295 258 292 274 272 203 83 168 205 202 232 261 326 305 206 198 192 192 192 190 197 199 192 178 173 172 166 164 163 158 155
285 278 261 295 329 337 335 279 228 228 251 242 235 255 266 298 287 283 294 302 308 307 308 232 170 272 250 210 184 210 155 209 244 256 308 321 289 232 198 197 195 192 188 184 182 183 171 167 167 167 167 165 162 158
261 239 272 305 327 324 339 259 235 232 245 248 249 245 258 272 271 275 281 282 304 302 246 249 165 233 297 238 237 187 201 221 317 315 312 307 286 213 196 189 180 177 174 172 170 172 166 165 164 168 166 167 163 162
258 269 283 306 319 328 269 229 246 244 252 249 253 270 261 259 268 276 279 291 289 258 281 312 297 248 248 244 245 291 332 325 336 327 315 283 222 180 183 178 172 167 160 158 161 156 162 165 170 170 165 162 162 164
296 291 282 291 303 321 264 233 233 259 249 264 267 276 273 273 282 288 287 288 279 257 287 283 250 230 252 300 311 340 335 305 316 70 103 142 161 170 171 164 154 153 152 152 156 161 163 165 166 166 167 167 167 169
297 294 277 255 265 280 268 254 226 261 269 274 268 268 267 265 281 286 285 272 255 229 221 222 211 244 268 319 313 316 302 146 140 118 113 130 150 157 158 163 153 151 152 156 155 150 152 156 160 164 167 171 173 173
307 280 286 286 273 243 261 260 248 245 275 263 278 289 272 262 266 255 244 211 225 225 264 225 265 302 325 317 336 13 224 197 188 203 153 142 154 162 158 153 153 151 147 146 147 151 152 152 154 160 160 163 172 173
287 273 281 246 254 257 261 242 252 279 271 272 293 248 264 282 300 248 296 237 240 231 224 248 302 358 6 339 38 97 127 138 120 130 154 149 146 151 157 154 149 145 146 149 150 147 145 148 151 153 156 155 153 158
235 233 253 248 264 249 269 254 256 251 261 266 279 262 230 151 257 264 275 259 269 271 251 254 271 348 3 92 97 116 115 131 144 139 149 151 146 148 150 150 151 146 145 146 148 148 149 150 151 150 153 151 150 151
185 211 228 240 228 266 289 255 248 266 271 262 250 266 243 208 182 221 268 286 292 277 267 277 273 212 162 150 159 169 171 149 147 142 153 149 140 139 146 153 149 146 148 149 153 154 153 151 153 154 158 162 166 176
200 220 222 260 243 255 261 272 254 273 265 276 280 293 320 316 274 51 126 284 3 24 55 187 312 177 168 160 148 187 188 185 172 154 145 144 137 147 156 154 150 152 156 154 153 155 155 157 159 162 168 175 182 183
215 215 195 227 227 198 253 276 288 303 297 286 269 317 1 344 344 359 359 0 356 357 5 349 42 188 183 192 192 171 177 165 169 165 158 161 163 160 160 161 158 159 162 160 154 156 159 160 162 167 166 159 155 158
225 221 230 230 252 283 282 271 269 276 278 279 329 330 341 263 213 332 342 354 354 353 358 196 200 238 250 208 181 171 164 162 168 155 152 160 168 162 160 155 156 152 156 162 160 163 166 164 165 162 148 141 137 153
238 222 204 199 209 225 259 289 268 250 268 320 323 288 318 16 343 340 333 340 349 2 37 108 108 136 149 143 140 157 163 156 160 153 150 157 162 156 151 144 142 148 155 159 162 159 156 156 154 158 160 161 178 215
231 225 196 216 220 232 222 217 254 265 318 333 319 284 316 331 318 328 332 346 11 23 82 147 135 135 92 97 155 143 146 151 152 153 154 158 159 162 162 158 156 169 172 173 171 171 163 157 156 159 167 189 156 136
226 198 207 218 200 229 240 220 254 277 303 309 305 299 303 310 324 332 341 353 17 44 69 106 139 120 43 144 165 153 147 150 161 161 159 163 167 164 163 163 159 166 173 171 163 174 178 177 178 181 178 175 174 192
190 181 223 208 237 245 254 260 264 274 286 292 296 289 292 307 323 358 356 4 16 51 83 112 12 23 74 135 142 139 140 147 153 155 154 154 154 155 155 160 157 160 160 162 170 179 185 186 192 201 221 195 190 194
179 184 195 211 253 263 247 258 267 267 279 282 288 281 301 297 293 339 355 17 70 64 101 45 13 56 110 138 144 142 138 135 143 155 154 152 148 148 157 162 170 165 161 163 153 155 157 175 188 186 188 187 177 169
171 179 206 280 261 244 194 187 220 266 252 258 265 283 284 273 291 339 356 42 105 98 119 111 131 103 131 141 141 142 143 138 137 143 145 147 144 139 150 156 163 171 179 184 189 189 187 185 178 185 185 175 173 163